STARLINK-33623 (63072 NORAD) Tracking and Keplerian Element Data

This shows tracking and keplerian element data for the satellite.

Feedback or suggestion? Click here.




ElementValue
Catalog63072
NameSTARLINK-33623
Epoch Orbit4755
Epoch Day354.09806743
Epoch Year2025
RAAN236.8808
Inclination42.9998
Eccentricity9.72E-05
Argument of Perigee301.4895
Mean Anonmoly58.5862
Mean Motion15.27582518
Decay Rate0.00010126
L11 63072U 25035W 25354.09806743 .00010126 00000+0 37694-3 0 9990
L22 63072 42.9998 236.8808 0000972 301.4895 58.5862 15.27582518 47553



Live tracking and technical data element details for STARLINK-33623 (NORAD 63072). STARLINK-33623 can be tracked NOW for your location showing map with azimuth and elevation plus other details from your city location.







IsCatalogInMostPopularTable: catalog: 63072, numindb: 1
Update: records affected: 1



GetName: 63072 STARLINK-33623

Hit Count: updated at: Sat, 07 Feb 2026 08:41:03 GMT